Flag for U.S.A. Weather past 2 weeks in Topeka, Kansas, U.S.A.

Now
91 °F

Scattered clouds.


Feels Like: 100 °F
Forecast: 69 / 94 °F
Wind: 14 mph from Southeast

Location: Philip Billard Municipal Airport

Current Time: Jul 5, 2015 at 4:22:01 PM

Latest Report: Jul 5, 2015 at 3:53 PM


Visibility: 10 mi

Pressure: 29.85 "Hg

Humidity: 56%

Dew point: 73 °F

Location of TopekaLocation

Historic Weather in Topeka — Graph

°F

Topeka temperature yesterday

Maximum temperature yesterday: 83 °F (at 3:53 PM)
Minimum temperature yesterday: 60 °F (at 5:03 AM)
Average temperature yesterday: 72 °F

Past Weeks' High & Low Weather Summary

 TemperatureHumidityPressure
High97 °F (Jun 20, 2:53 PM)100% (Jul 4, 5:03 AM)30.13 "Hg (Jul 4, 5:03 AM)
Low60 °F (Jul 4, 5:03 AM)34% (Jun 28, 3:53 PM)29.72 "Hg (Jun 20, 8:53 PM)
Average78 °F70%29.91 "Hg
* Reported Jun 20 2:53 PM — Jul 5 2:53 PM, Topeka, Weather by CustomWeather, © 2015

Note: Actual official high and low records may vary slightly from our data, if they occured in-between our weather recording intervals... More about our weather records

Advertising

Topeka weather history for previous 24 hours

 ConditionsComfort  
Time TempWeatherWind HumidityBarometerVisibility
2:53 PM
Sun, Jul 5
89 °FScattered clouds.15 mph57%29.87 "Hg10 mi
1:53 PM84 °FBroken clouds.8 mph70%29.88 "Hg10 mi
12:53 PM88 °FThunderstorms. Passing clouds.12 mph61%29.91 "Hg10 mi
11:53 AM85 °FSunny.15 mph68%29.92 "Hg10 mi
10:53 AM83 °FScattered clouds.17 mph72%29.92 "Hg10 mi
9:53 AM80 °FSunny.8 mph74%29.94 "Hg9 mi
8:53 AM77 °FSunny.8 mph79%29.95 "Hg7 mi
7:53 AM73 °FSunny.3 mph84%29.94 "Hg6 mi
6:53 AM70 °FFog.5 mph87%29.93 "Hg5 mi
5:53 AM69 °FFog.6 mph87%29.93 "Hg6 mi
4:53 AM69 °FFog.6 mph87%29.93 "Hg6 mi
3:53 AM69 °FFog.3 mph87%29.93 "Hg6 mi
2:53 AM70 °FClear.5 mph84%29.94 "Hg6 mi
1:53 AM70 °FClear.5 mph84%29.96 "Hg5 mi
12:53 AM70 °FClear.5 mph84%29.96 "Hg6 mi
11:53 PM
Sat, Jul 4
71 °FClear.5 mph81%29.96 "Hg6 mi
10:53 PM72 °FClear.5 mph78%29.95 "Hg5 mi
9:53 PM73 °FClear.7 mph74%29.92 "Hg6 mi
8:53 PM75 °FSunny.6 mph71%29.91 "Hg8 mi
7:53 PM81 °FSunny.5 mph56%29.90 "Hg9 mi
6:53 PM82 °FSunny.9 mph56%29.89 "Hg9 mi
5:53 PM83 °FSunny.6 mph55%29.92 "Hg10 mi
4:53 PM83 °FSunny.12 mph55%29.93 "Hg10 mi
Weather by CustomWeather, © 2015

See weather overviewHow to use our weather pages